Time,TemperatureF,DewpointF,PressureIn,WindDirection,WindDirectionDegrees,WindSpeedMPH,WindSpeedGustMPH,Humidity,HourlyPrecipIn,Conditions,Clouds,dailyrainin,SoftwareType,DateUTC
2013-01-02 00:14:00,36.9,33.0,30.25,West,267,3.0,10.0,86,0.00,,,0.00,weatherlink.com 1.10,2013-01-02 07:14:00,
2013-01-02 00:29:00,36.7,33.0,30.25,WNW,298,2.0,9.0,86,0.00,,,0.00,weatherlink.com 1.10,2013-01-02 07:29:00,
2013-01-02 00:44:00,36.6,33.0,30.25,NW,308,3.0,12.0,85,0.00,,,0.00,weatherlink.com 1.10,2013-01-02 07:44:00,
2013-01-02 00:59:00,36.3,32.0,30.25,WNW,293,4.0,7.0,85,0.00,,,0.00,weatherlink.com 1.10,2013-01-02 07:59:00,
2013-01-02 01:14:00,36.0,32.0,30.25,NNW,338,1.0,6.0,85,0.00,,,0.00,weatherlink.com 1.10,2013-01-02 08:14:00,
2013-01-02 01:29:00,35.9,32.0,30.26,NW,314,1.0,6.0,85,0.00,,,0.00,weatherlink.com 1.10,2013-01-02 08:29:00,
2013-01-02 01:44:00,35.8,32.0,30.26,NW,313,1.0,5.0,85,0.00,,,0.00,weatherlink.com 1.10,2013-01-02 08:44:00,
2013-01-02 01:59:00,35.6,31.0,30.26,NNE,13,2.0,9.0,84,0.00,,,0.00,weatherlink.com 1.10,2013-01-02 08:59:00,
2013-01-02 02:14:00,35.6,32.0,30.27,NW,323,0.0,7.0,85,0.00,,,0.00,weatherlink.com 1.10,2013-01-02 09:14:00,
2013-01-02 02:29:00,35.4,31.0,30.26,NW,314,1.0,7.0,85,0.00,,,0.00,weatherlink.com 1.10,2013-01-02 09:29:00,
2013-01-02 02:44:00,35.4,31.0,30.26,WNW,298,3.0,5.0,85,0.00,,,0.00,weatherlink.com 1.10,2013-01-02 09:44:00,
2013-01-02 02:59:00,35.5,31.0,30.25,NW,309,0.0,8.0,85,0.00,,,0.00,weatherlink.com 1.10,2013-01-02 09:59:00,
2013-01-02 03:14:00,35.5,32.0,30.25,WNW,302,1.0,6.0,86,0.00,,,0.00,weatherlink.com 1.10,2013-01-02 10:14:00,
2013-01-02 03:29:00,35.6,32.0,30.26,WNW,299,1.0,7.0,86,0.00,,,0.00,weatherlink.com 1.10,2013-01-02 10:29:00,
2013-01-02 03:44:00,35.6,32.0,30.26,WNW,294,2.0,8.0,85,0.00,,,0.00,weatherlink.com 1.10,2013-01-02 10:44:00,
2013-01-02 03:59:00,35.5,32.0,30.25,NW,313,3.0,7.0,86,0.00,,,0.00,weatherlink.com 1.10,2013-01-02 10:59:00,
2013-01-02 04:14:00,35.4,32.0,30.25,WNW,301,2.0,10.0,87,0.00,,,0.00,weatherlink.com 1.10,2013-01-02 11:14:00,
2013-01-02 04:29:00,35.3,32.0,30.25,WNW,295,2.0,8.0,87,0.00,,,0.00,weatherlink.com 1.10,2013-01-02 11:29:00,
2013-01-02 04:44:00,34.9,31.0,30.26,WNW,294,1.0,5.0,86,0.00,,,0.00,weatherlink.com 1.10,2013-01-02 11:44:00,
2013-01-02 04:59:00,34.9,31.0,30.27,WNW,301,1.0,5.0,86,0.00,,,0.00,weatherlink.com 1.10,2013-01-02 11:59:00,
2013-01-02 05:14:00,34.8,31.0,30.27,WNW,283,0.0,9.0,87,0.00,,,0.00,weatherlink.com 1.10,2013-01-02 12:14:00,
2013-01-02 05:29:00,34.6,31.0,30.26,WNW,297,2.0,5.0,87,0.00,,,0.00,weatherlink.com 1.10,2013-01-02 12:29:00,
2013-01-02 05:44:00,34.2,31.0,30.25,NW,311,1.0,8.0,86,0.00,,,0.00,weatherlink.com 1.10,2013-01-02 12:44:00,
2013-01-02 05:59:00,34.2,31.0,30.26,NNW,330,3.0,6.0,87,0.00,,,0.00,weatherlink.com 1.10,2013-01-02 12:59:00,
2013-01-02 06:14:00,34.0,31.0,30.28,NW,312,4.0,7.0,87,0.00,,,0.00,weatherlink.com 1.10,2013-01-02 13:14:00,
2013-01-02 06:30:00,34.0,31.0,30.27,WNW,302,1.0,5.0,88,0.00,,,0.00,weatherlink.com 1.10,2013-01-02 13:30:00,
2013-01-02 06:45:00,34.0,31.0,30.28,WNW,302,2.0,7.0,88,0.00,,,0.00,weatherlink.com 1.10,2013-01-02 13:45:00,
2013-01-02 07:00:00,34.1,30.0,30.29,WNW,298,1.0,6.0,86,0.00,,,0.00,weatherlink.com 1.10,2013-01-02 14:00:00,
2013-01-02 07:15:00,34.0,30.0,30.28,NW,309,5.0,8.0,86,0.00,,,0.00,weatherlink.com 1.10,2013-01-02 14:15:00,
2013-01-02 07:30:00,34.0,30.0,30.29,NW,311,3.0,7.0,86,0.00,,,0.00,weatherlink.com 1.10,2013-01-02 14:30:00,
2013-01-02 07:45:00,34.0,30.0,30.30,WNW,301,1.0,7.0,85,0.00,,,0.00,weatherlink.com 1.10,2013-01-02 14:45:00,
2013-01-02 08:00:00,34.1,30.0,30.31,NW,307,0.0,8.0,85,0.00,,,0.00,weatherlink.com 1.10,2013-01-02 15:00:00,
2013-01-02 08:15:00,34.2,30.0,30.32,NW,316,2.0,6.0,85,0.00,,,0.00,weatherlink.com 1.10,2013-01-02 15:15:00,
2013-01-02 08:30:00,34.5,31.0,30.32,WNW,295,3.0,5.0,85,0.00,,,0.00,weatherlink.com 1.10,2013-01-02 15:30:00,
2013-01-02 08:45:00,34.5,30.0,30.32,NNW,332,0.0,7.0,84,0.00,,,0.00,weatherlink.com 1.10,2013-01-02 15:45:00,
2013-01-02 09:00:00,34.8,31.0,30.32,NW,316,1.0,4.0,85,0.00,,,0.00,weatherlink.com 1.10,2013-01-02 16:00:00,
2013-01-02 09:15:00,34.9,30.0,30.32,NW,312,1.0,6.0,83,0.00,,,0.00,weatherlink.com 1.10,2013-01-02 16:15:00,
2013-01-02 09:30:00,35.2,31.0,30.32,WNW,299,3.0,6.0,83,0.00,,,0.00,weatherlink.com 1.10,2013-01-02 16:30:00,
2013-01-02 09:45:00,35.2,31.0,30.32,West,280,1.0,5.0,83,0.00,,,0.00,weatherlink.com 1.10,2013-01-02 16:45:00,
2013-01-02 10:00:00,35.6,31.0,30.32,NW,307,1.0,6.0,83,0.00,,,0.00,weatherlink.com 1.10,2013-01-02 17:00:00,
2013-01-02 10:15:00,35.8,31.0,30.32,NW,318,3.0,8.0,81,0.00,,,0.00,weatherlink.com 1.10,2013-01-02 17:15:00,
2013-01-02 10:30:00,36.2,31.0,30.31,WNW,297,3.0,6.0,82,0.00,,,0.00,weatherlink.com 1.10,2013-01-02 17:30:00,
2013-01-02 10:45:00,36.7,31.0,30.30,NW,310,2.0,4.0,81,0.00,,,0.00,weatherlink.com 1.10,2013-01-02 17:45:00,
2013-01-02 11:00:00,36.6,32.0,30.30,WSW,253,4.0,7.0,82,0.00,,,0.00,weatherlink.com 1.10,2013-01-02 18:00:00,
2013-01-02 11:15:00,36.8,32.0,30.29,WNW,299,3.0,6.0,81,0.00,,,0.00,weatherlink.com 1.10,2013-01-02 18:15:00,
2013-01-02 11:30:00,36.7,31.0,30.28,NNW,329,5.0,7.0,81,0.00,,,0.00,weatherlink.com 1.10,2013-01-02 18:30:00,
2013-01-02 11:45:00,37.1,32.0,30.28,NW,304,3.0,6.0,81,0.00,,,0.00,weatherlink.com 1.10,2013-01-02 18:45:00,
2013-01-02 12:00:00,37.3,32.0,30.27,NW,304,2.0,6.0,80,0.00,,,0.00,weatherlink.com 1.10,2013-01-02 19:00:00,
2013-01-02 12:15:00,37.2,32.0,30.26,NW,307,4.0,5.0,81,0.00,,,0.00,weatherlink.com 1.10,2013-01-02 19:15:00,
2013-01-02 12:31:00,37.5,32.0,30.25,WNW,301,4.0,8.0,80,0.00,,,0.00,weatherlink.com 1.10,2013-01-02 19:31:00,
2013-01-02 12:45:00,37.6,32.0,30.25,NW,311,5.0,6.0,79,0.00,,,0.00,weatherlink.com 1.10,2013-01-02 19:45:00,
2013-01-02 13:00:00,38.1,32.0,30.25,WNW,283,1.0,7.0,79,0.00,,,0.00,weatherlink.com 1.10,2013-01-02 20:00:00,
2013-01-02 13:15:00,38.1,32.0,30.25,WNW,301,4.0,10.0,80,0.00,,,0.00,weatherlink.com 1.10,2013-01-02 20:15:00,
2013-01-02 13:30:00,38.3,32.0,30.25,WNW,292,4.0,6.0,79,0.00,,,0.00,weatherlink.com 1.10,2013-01-02 20:30:00,
2013-01-02 13:45:00,38.3,32.0,30.25,WNW,302,2.0,6.0,78,0.00,,,0.00,weatherlink.com 1.10,2013-01-02 20:45:00,
2013-01-02 14:00:00,38.6,32.0,30.25,WNW,298,5.0,12.0,77,0.00,,,0.00,weatherlink.com 1.10,2013-01-02 21:00:00,
2013-01-02 14:15:00,38.6,32.0,30.25,WNW,303,2.0,6.0,78,0.00,,,0.00,weatherlink.com 1.10,2013-01-02 21:15:00,
2013-01-02 14:30:00,38.5,32.0,30.24,WNW,300,4.0,8.0,78,0.00,,,0.00,weatherlink.com 1.10,2013-01-02 21:30:00,
2013-01-02 14:46:00,38.6,32.0,30.25,West,274,1.0,6.0,78,0.00,,,0.00,weatherlink.com 1.10,2013-01-02 21:46:00,
2013-01-02 15:01:00,38.6,32.0,30.25,NW,325,6.0,6.0,77,0.00,,,0.00,weatherlink.com 1.10,2013-01-02 22:01:00,
2013-01-02 15:16:00,38.4,31.0,30.25,WNW,291,1.0,5.0,76,0.00,,,0.00,weatherlink.com 1.10,2013-01-02 22:16:00,
2013-01-02 15:31:00,38.4,32.0,30.25,WNW,303,2.0,6.0,78,0.00,,,0.00,weatherlink.com 1.10,2013-01-02 22:31:00,
2013-01-02 15:46:00,38.1,32.0,30.25,West,281,0.0,3.0,78,0.00,,,0.00,weatherlink.com 1.10,2013-01-02 22:46:00,
2013-01-02 16:01:00,37.9,32.0,30.25,WNW,294,2.0,4.0,78,0.00,,,0.00,weatherlink.com 1.10,2013-01-02 23:01:00,
2013-01-02 16:16:00,37.7,32.0,30.25,WNW,302,1.0,4.0,80,0.00,,,0.00,weatherlink.com 1.10,2013-01-02 23:16:00,
2013-01-02 16:31:00,37.2,32.0,30.25,NW,311,0.0,4.0,80,0.00,,,0.00,weatherlink.com 1.10,2013-01-02 23:31:00,
2013-01-02 16:46:00,36.7,31.0,30.25,NW,304,0.0,3.0,80,0.00,,,0.00,weatherlink.com 1.10,2013-01-02 23:46:00,
2013-01-02 17:01:00,36.7,31.0,30.26,NW,314,0.0,3.0,81,0.00,,,0.00,weatherlink.com 1.10,2013-01-03 00:01:00,
2013-01-02 17:16:00,36.7,31.0,30.26,WNW,290,0.0,3.0,81,0.00,,,0.00,weatherlink.com 1.10,2013-01-03 00:16:00,
2013-01-02 17:31:00,36.3,32.0,30.26,WNW,298,1.0,2.0,83,0.00,,,0.00,weatherlink.com 1.10,2013-01-03 00:31:00,
2013-01-02 17:46:00,36.1,31.0,30.27,WNW,295,1.0,2.0,83,0.00,,,0.00,weatherlink.com 1.10,2013-01-03 00:46:00,
2013-01-02 18:01:00,35.9,32.0,30.27,WNW,291,0.0,1.0,84,0.00,,,0.00,weatherlink.com 1.10,2013-01-03 01:01:00,
2013-01-02 18:16:00,35.3,31.0,30.28,WNW,293,0.0,0.0,85,0.00,,,0.00,weatherlink.com 1.10,2013-01-03 01:16:00,
2013-01-02 18:31:00,34.8,31.0,30.29,WNW,293,0.0,1.0,87,0.00,,,0.00,weatherlink.com 1.10,2013-01-03 01:31:00,
2013-01-02 18:46:00,34.1,31.0,30.29,WNW,292,0.0,1.0,87,0.00,,,0.00,weatherlink.com 1.10,2013-01-03 01:46:00,
2013-01-02 19:01:00,33.4,30.0,30.29,WNW,292,0.0,0.0,88,0.00,,,0.00,weatherlink.com 1.10,2013-01-03 02:01:00,
2013-01-02 19:16:00,33.2,30.0,30.29,WSW,256,0.0,0.0,89,0.00,,,0.00,weatherlink.com 1.10,2013-01-03 02:16:00,
2013-01-02 19:31:00,33.3,30.0,30.30,WSW,256,0.0,0.0,89,0.00,,,0.00,weatherlink.com 1.10,2013-01-03 02:31:00,
2013-01-02 19:46:00,32.9,30.0,30.30,WSW,256,0.0,0.0,89,0.00,,,0.00,weatherlink.com 1.10,2013-01-03 02:46:00,
2013-01-02 20:01:00,32.4,30.0,30.30,WSW,255,0.0,0.0,90,0.00,,,0.00,weatherlink.com 1.10,2013-01-03 03:01:00,
2013-01-02 20:16:00,32.7,30.0,30.30,WSW,255,0.0,0.0,91,0.00,,,0.00,weatherlink.com 1.10,2013-01-03 03:16:00,
2013-01-02 20:31:00,32.2,30.0,30.30,WSW,256,0.0,0.0,90,0.00,,,0.00,weatherlink.com 1.10,2013-01-03 03:31:00,
2013-01-02 20:46:00,31.5,29.0,30.30,South,183,0.0,0.0,91,0.00,,,0.00,weatherlink.com 1.10,2013-01-03 03:46:00,
2013-01-02 21:01:00,30.8,29.0,30.30,South,183,0.0,0.0,91,0.00,,,0.00,weatherlink.com 1.10,2013-01-03 04:01:00,
2013-01-02 21:16:00,30.2,28.0,30.31,South,183,0.0,0.0,91,0.00,,,0.00,weatherlink.com 1.10,2013-01-03 04:16:00,
2013-01-02 21:31:00,30.3,29.0,30.31,South,183,0.0,0.0,93,0.00,,,0.00,weatherlink.com 1.10,2013-01-03 04:31:00,
2013-01-02 21:46:00,30.6,29.0,30.31,South,184,0.0,0.0,93,0.00,,,0.00,weatherlink.com 1.10,2013-01-03 04:46:00,
2013-01-02 22:16:00,29.3,28.0,30.31,South,183,0.0,0.0,93,0.00,,,0.00,weatherlink.com 1.10,2013-01-03 05:16:00,
2013-01-02 22:31:00,28.8,27.0,30.32,SSE,155,0.0,1.0,93,0.00,,,0.00,weatherlink.com 1.10,2013-01-03 05:31:00,
2013-01-02 22:46:00,28.6,27.0,30.31,SE,130,0.0,1.0,93,0.00,,,0.00,weatherlink.com 1.10,2013-01-03 05:46:00,
2013-01-02 23:01:00,28.5,27.0,30.32,SE,129,0.0,0.0,93,0.00,,,0.00,weatherlink.com 1.10,2013-01-03 06:01:00,
2013-01-02 23:16:00,28.2,27.0,30.33,ESE,115,0.0,1.0,93,0.00,,,0.00,weatherlink.com 1.10,2013-01-03 06:16:00,
2013-01-02 23:31:00,28.3,27.0,30.32,ESE,115,0.0,1.0,94,0.00,,,0.00,weatherlink.com 1.10,2013-01-03 06:31:00,
2013-01-02 23:46:00,28.2,27.0,30.32,ESE,115,0.0,1.0,94,0.00,,,0.00,weatherlink.com 1.10,2013-01-03 06:46:00,